www.pogodaiklimat.ru
ПОГОДА в Джейнсвилле
Время
и дата
11:45 05.02
12:45 05.02
13:45 05.02
14:45 05.02
15:45 05.02
16:45 05.02
18:45 05.02
19:45 05.02
20:45 05.02
21:55 05.02
22:15 05.02
22:35 05.02
22:55 05.02
23:15 05.02
23:35 05.02
23:55 05.02
00:15 06.02
00:35 06.02
00:55 06.02
01:15 06.02
01:35 06.02
01:55 06.02
02:15 06.02
02:35 06.02
02:55 06.02
03:15 06.02
03:35 06.02
03:55 06.02
04:15 06.02
04:35 06.02
04:55 06.02
05:45 06.02
06:45 06.02
07:45 06.02
08:45 06.02
09:45 06.02
09:55 06.02
10:45 06.02
11:45 06.02
12:45 06.02
13:45 06.02
14:45 06.02
15:45 06.02
16:45 06.02
17:45 06.02
18:45 06.02
19:45 06.02
20:45 06.02
Ветер
(напр.,м/с)
Видим. Явления Облачность Т
(С)
Тd
(С)
f
(%)
Тe
(С)
Тes
(С)
Комфортность P
(гПа)
Po
(гПа)
Тmin
(С)
Tmax
(С)
R
(мм)
R24
(мм)
S
(см)
З 6 16 км 8/0 6000 m
[Ac]
+2.0 -3.0 69 -4 -3 982.9
СЗ 6 16 км 8/0 6000 m
[Ac]
+2.0 -3.0 69 -4 -3 983.2
СЗ 5 16 км 5/0 2100 m
[Ac]
+3.0 -3.0 65 -2 0 983.9
СЗ 5 16 км 5/0 2250 m
[Ac]
+3.0 -3.0 65 -2 -1 984.9
СЗ 6 16 км 2/0 7500 m
[Ci]
+3.0 -3.0 65 -2 -2 986.2
СЗ 4 16 км ясно +2.0 -3.0 69 -3 -2 986.8
З 3 16 км ясно -2.0 -6.0 74 -7 -7 988.8
СЗ 3 16 км ясно -3.0 -5.0 86 -8 -8 990.1
штиль 0 16 км ясно -2.0 -5.0 80 -3 -3 990.5
штиль 0 5 км дымка ясно -3.0 -3.0 100 -4 -4 990.8
СВ 2 11 км ясно -5.0 -5.0 100 -10 -10 990.8
СВ 2 16 км ясно -3.0 -3.0 100 -7 -7 990.8
штиль 0 11 км ясно -5.0 -6.0 93 -6 -6 991.4
штиль 0 11 км ясно -7.0 -8.0 93 -8 -8 991.4
штиль 0 2 км дымка ?/? -6.0 -6.0 100 -7 -7 991.8
штиль 0 1 км дымка ?/? -6.0 -6.0 100 -7 -7 992.1
штиль 0 6 км дымка ясно -7.0 -7.0 100 -8 -8 992.1
штиль 0 6 км дымка ясно -8.0 -8.0 100 -9 -9 992.1
штиль 0 6 км дымка ясно -8.0 -8.0 100 -9 -9 992.1
штиль 0 <100 м переохлажденный туман ?/? -8.0 -8.0 100 -9 -9 992.1
штиль 0 5 км дымка ясно -9.0 -9.0 100 -10 -10 992.4
штиль 0 5 км дымка ясно -8.0 -8.0 100 -9 -9 992.4
штиль 0 <100 м переохлажденный туман ?/? -9.0 -9.0 100 -10 -10 992.8
штиль 0 <100 м переохлажденный туман ?/? -8.0 -8.0 100 -9 -9 992.8
штиль 0 <100 м переохлажденный туман ?/? -9.0 -9.0 100 -10 -10 992.8
штиль 0 400 м переохлажденный туман ?/? -10.0 -10.0 100 -10 -10 992.4
штиль 0 5 км дымка ясно -10.0 -10.0 100 -10 -10 992.4
штиль 0 <100 м переохлажденный туман ?/? -10.0 -10.0 100 -10 -10 992.8
штиль 0 <100 м переохлажденный туман ?/? -10.0 -11.0 92 -10 -10 992.8
штиль 0 <100 м переохлажденный туман 8/8 30 м -10.0 -11.0 92 -10 -10 993.1
штиль 0 <100 м переохлажденный туман 10/10 30 м -12.0 -12.0 100 -12 -12 992.4
штиль 0 5 км дымка 5/0 3600 m
[Ac]
-12.0 -13.0 92 -12 -12 992.8
штиль 0 5 км дымка 5/0 3600 m
[Ac]
-13.0 -14.0 92 -13 -13 992.8
штиль 0 8 км дымка 5/0 6000 m
[Ac]
-11.0 -12.0 92 -11 -11 993.1
нст 2 11 км 5/0 6000 m
[Ac]
-9.0 -10.0 92 -14 -13 992.8
штиль 0 8 км дымка 8/0 6000 m
[Ac]
-5.0 -6.0 93 -6 -5 992.4
ЮВ 5 11 км 8/0 6000 m
[Ac]
-3.0 -4.0 93 -10 -9 992.1
ЮВ 5
{9}
16 км 8/0 6000 m
[Ac]
0.0 -3.0 80 -6 -5 991.4
ЮВ 4 16 км 8/0 6000 m
[Ac]
0.0 -4.0 74 -5 -4 990.5
ЮВ 5 16 км 8/0 6000 m
[Ac]
+3.0 -3.0 65 -2 -1 988.5
ЮВ 7
{10}
16 км 8/0 6000 m
[Ac]
+3.0 -2.0 70 -3 -2 986.8
ЮВ 6
{10}
16 км 8/0 6000 m
[Ac]
+4.0 -2.0 65 -1 0 985.5
ЮВ 6
{11}
16 км 5/0 6000 m
[Ac]
+4.0 -2.0 65 -1 -1 983.5
ЮВ 7 16 км 8/5 1500 m
[Ac]
+4.0 -2.0 65 -2 -2 981.9
ЮВ 7
{14}
16 км н/о +4.0 -2.0 65 -2 -2 980.9
ЮВ 9
{14}
16 км 5/0 4500 m
[Ac]
+4.0 -2.0 65 -2 -2 979.6
Ю 6
{11}
16 км 5/0 2250 m
[Ac]
+5.0 -1.0 65 0 0 980.3
Ю 9
{14}
16 км 8/8 1650 м +6.0 -1.0 61 +1 +1 978.9
Местоположение метеостанции Southern Wisconsin Regional Airport: широта 42.6200 долгота -89.0300 высота над уровнем моря 246 м.
В архиве по умолчанию представлена погода в Джейнсвилле за последние 1-2 суток. Обновление информации о фактической погоде в базе происходит ежечасно! Архивные данные за месяц целиком и за предыдущие месяцы Вы можете получить, выбрав интересующий диапазон дат из раскрывающегося списка и нажав кнопку "Ввод!".
Внимание! Архив погоды МЕТАР в базе сайта по станциям, не включенным в климатический монитор, хранится не более 60 дней. Нет смысла пытаться выбрать более раннюю дату.
*Определитесь, кто Вы:
Внимание! Время в таблицах - местное (без учета летнего времени). Для получения всемирного времени необходимо вычесть поправку, которая равна -6 ч.
Смотрите также архив погоды в соседних городах и на ближайших метеорологических станциях:
Партнеры нашего сайта:      
Пояснения к столбцам:
  • Ветер - указаны скорость ветра в м/с - средняя за 10 мин, порывы в срок и между сроками (в фигурных скобках) и направление, откуда дует ветер: С - северный,
  • СВ - северо-восточный, В - восточный, ЮВ - юго-восточный, Ю - южный, ЮЗ - юго-западный, З - западный, СЗ - северо-западный.
  • Видимость - горизонтальная дальность видимости в метрах или километрах. При видимости от 1 до 10 км при отсутствии осадков обычно наблюдается дымка, при ухудшении видимости до 1 км и менее - туман. В сухую погоду видимость может ухудшаться дымом, пылью или мглою.
  • Явления - указаны атмосферные явления, наблюдавшиеся в срок или в последний час перед сроком; фигурными скобками обозначены явления, наблюдавшиеся между сроками (за 1-3 часа до срока); квадратными скобками обозначены град или гололедные отложения с указанием их диаметра в мм.
  • Облачность - указаны через наклонную черту общая и нижняя облачность в баллах и высота нижней границы облаков в метрах; квадратными скобками обозначены формы облаков: Ci - перистые, Cs - перисто-слоистые, Cc - перисто-кучевые, Ac - высококучевые, As - высокослоистые, Sc - слоисто-кучевые, Ns - слоисто-дождевые, Cu - кучевые, Cb - кучево-дождевые. Подробнее классификацию облаков см. в Атласе облаков (PDF).
  • T - Температура воздуха - температура, измеренная на высоте 2 м над землей.
  • Td - Температура точки росы - температура, при понижении до которой содержащийся в воздухе водяной пар достигнет насыщения.
  • f - Относительная влажность воздуха - влажноcть воздуха, измеренная на высоте 2 м над землей.
  • Te - Эффективная температура - температура, которую ощущает одетый по сезону человек в тени. Характеристика душности погоды. При расчете учитывается влияние влажности воздуха и скорости ветра на теплоощущения человека.
  • Tes - Эффективная температура на солнце - температура, которую ощущает человек, с поправкой на солнечный нагрев. Характеристика знойности погоды. Зависит от высоты солнца над горизонтом, облачности и скорости ветра. Ночью, в пасмурную погоду, а также при ветре 12 м/с и более поправка равна нулю.
  • P - Атмосферное давление - приведенное к уровню моря атмосферное давление.
  • Po - Атмосферное давление - измеренное на уровне метеостанции атмосферное давление.
  • Tmin - Минимальная температура - минимум температуры воздуха на высоте 2 м над землей.
  • Tmax - Максимальная температура - максимум температуры воздуха на высоте 2 м над землей.
  • R - Количество осадков - Количество выпавших осадков за период времени, мм. При наведении курсора мыши на число - период времени, за который выпало указанное количество осадков.
  • R24 - Количество осадков - Количество выпавших осадков за 24 часа, мм.
  • S - Снежный покров - Высота снежного покрова, см. При наведении курсора мыши на число - состояние снежного покрова и степень покрытия местности в баллах.